GFSCGP_500_temp_000.txt.gz
Temp
-17 -17 -17 -16 -16 -16 -16 -16 -16 -16 -15 -15 -15 -15 -15 -15 -14 -14 -14 -14 -15 -15 -15 -15 -15 -15 -15 -15 -15 -15 -15 -15 -16 -15 -16 -16 -16 -17 -17 -17 -17 -17 -17 -17
-16 -16 -16 -16 -16 -16 -16 -16 -16 -15 -15 -15 -15 -15 -14 -14 -14 -14 -14 -15 -16 -16 -16 -16 -16 -15 -16 -16 -16 -16 -16 -16 -16 -16 -16 -17 -17 -17 -17 -17 -17 -17 -17 -17
-16 -16 -16 -16 -16 -16 -16 -16 -15 -16 -16 -15 -15 -15 -15 -15 -15 -14 -15 -15 -16 -16 -16 -16 -16 -16 -16 -16 -16 -16 -16 -17 -17 -17 -17 -17 -17 -17 -17 -17 -17 -17 -18 -18
-17 -17 -17 -16 -16 -16 -16 -16 -16 -16 -16 -16 -16 -15 -15 -15 -14 -15 -15 -16 -16 -16 -16 -16 -16 -16 -16 -16 -16 -17 -17 -17 -17 -17 -17 -17 -17 -18 -18 -18 -18 -18 -18 -19
-16 -16 -16 -16 -16 -16 -16 -15 -16 -16 -16 -16 -16 -15 -15 -14 -15 -15 -15 -16 -16 -16 -16 -16 -16 -16 -16 -17 -17 -17 -17 -17 -17 -17 -18 -18 -18 -18 -18 -19 -19 -20 -19 -19
-16 -16 -16 -16 -16 -15 -15 -15 -15 -16 -16 -15 -15 -15 -14 -15 -15 -15 -16 -16 -16 -17 -17 -17 -17 -17 -17 -17 -17 -17 -18 -19 -19 -19 -18 -19 -19 -19 -19 -18 -18 -18 -18 -18
-16 -16 -15 -15 -15 -15 -15 -15 -15 -15 -15 -15 -15 -15 -15 -15 -15 -16 -16 -16 -16 -16 -17 -17 -17 -17 -17 -17 -17 -18 -18 -18 -18 -18 -18 -18 -18 -18 -18 -18 -18 -18 -18 -18
-16 -16 -15 -15 -15 -15 -15 -15 -15 -15 -15 -15 -15 -14 -14 -15 -15 -15 -16 -16 -16 -16 -16 -17 -17 -17 -17 -17 -17 -17 -18 -18 -17 -17 -18 -18 -18 -18 -18 -18 -18 -18 -18 -18
-15 -15 -15 -15 -15 -15 -15 -15 -15 -15 -15 -15 -15 -14 -15 -15 -15 -15 -15 -16 -15 -15 -15 -16 -16 -17 -17 -17 -17 -18 -18 -18 -18 -18 -18 -18 -19 -18 -18 -18 -18 -18 -19 -19
-15 -15 -15 -15 -15 -15 -15 -15 -15 -15 -15 -14 -14 -15 -14 -14 -15 -15 -15 -15 -15 -15 -15 -16 -16 -16 -16 -17 -17 -17 -17 -18 -19 -19 -19 -19 -19 -19 -19 -19 -19 -19 -19 -20
-15 -15 -15 -15 -15 -15 -15 -15 -15 -15 -15 -14 -14 -15 -15 -15 -15 -15 -15 -15 -15 -15 -15 -16 -16 -16 -16 -17 -17 -17 -18 -19 -19 -19 -19 -19 -19 -19 -19 -19 -19 -20 -20 -20
-15 -15 -15 -15 -15 -15 -15 -15 -15 -15 -15 -15 -14 -14 -14 -14 -14 -15 -15 -15 -15 -15 -15 -16 -16 -16 -17 -17 -18 -18 -18 -19 -19 -19 -19 -19 -19 -19 -19 -20 -20 -20 -21 -21
-15 -15 -15 -15 -15 -15 -15 -15 -15 -15 -15 -15 -15 -14 -15 -15 -15 -15 -15 -15 -15 -15 -16 -16 -16 -17 -17 -18 -18 -18 -19 -19 -20 -20 -19 -19 -20 -20 -20 -20 -20 -21 -21 -23
-15 -15 -15 -15 -15 -15 -15 -15 -15 -15 -15 -15 -15 -15 -15 -15 -15 -15 -15 -15 -16 -16 -16 -16 -17 -17 -18 -18 -18 -19 -19 -20 -20 -20 -20 -20 -20 -20 -21 -21 -21 -21 -23 -23
-15 -15 -15 -15 -15 -15 -15 -15 -15 -15 -15 -15 -15 -15 -15 -15 -15 -15 -16 -16 -16 -16 -16 -17 -17 -18 -18 -19 -19 -19 -20 -20 -20 -20 -20 -21 -21 -21 -21 -21 -22 -23 -24 -25
-15 -15 -15 -15 -15 -15 -15 -15 -15 -15 -15 -15 -15 -15 -15 -15 -15 -16 -16 -16 -16 -16 -17 -17 -17 -18 -19 -19 -19 -20 -20 -21 -21 -21 -21 -21 -21 -21 -21 -22 -23 -24 -25 -26
-15 -15 -15 -15 -16 -16 -15 -16 -16 -15 -15 -15 -15 -16 -16 -16 -16 -16 -16 -16 -16 -17 -17 -17 -18 -18 -19 -20 -20 -21 -21 -21 -21 -21 -21 -21 -21 -22 -22 -23 -24 -25 -27 -28
-15 -15 -15 -15 -15 -15 -15 -15 -16 -16 -16 -16 -16 -16 -16 -16 -16 -16 -16 -16 -17 -17 -17 -18 -18 -19 -20 -20 -20 -21 -21 -21 -21 -21 -21 -21 -22 -22 -23 -24 -25 -27 -28 -29
-15 -15 -16 -16 -15 -15 -15 -15 -16 -16 -16 -16 -16 -16 -16 -16 -16 -16 -16 -17 -17 -18 -18 -19 -20 -20 -20 -20 -21 -21 -21 -21 -21 -22 -22 -22 -23 -23 -24 -25 -27 -28 -29 -30
-15 -15 -16 -16 -16 -15 -15 -16 -16 -16 -16 -17 -16 -16 -16 -16 -16 -17 -17 -17 -18 -18 -19 -20 -20 -20 -21 -21 -21 -21 -21 -22 -22 -22 -23 -23 -24 -24 -25 -27 -28 -29 -30 -31
-16 -16 -16 -16 -16 -15 -16 -16 -16 -16 -16 -16 -16 -17 -17 -17 -17 -17 -17 -18 -19 -19 -20 -20 -20 -20 -21 -21 -21 -22 -22 -23 -23 -23 -24 -24 -24 -25 -27 -28 -29 -30 -31 -32
-15 -16 -16 -16 -16 -16 -16 -17 -17 -17 -17 -17 -17 -17 -17 -17 -17 -17 -18 -19 -19 -19 -20 -20 -21 -21 -21 -21 -22 -22 -23 -23 -23 -24 -24 -24 -25 -27 -28 -29 -30 -31 -32 -32
-15 -16 -16 -16 -17 -17 -17 -17 -17 -17 -17 -17 -17 -17 -17 -18 -18 -18 -18 -19 -19 -20 -20 -21 -21 -22 -22 -22 -23 -23 -23 -24 -24 -25 -25 -25 -27 -28 -29 -30 -31 -32 -32 -33
-16 -16 -16 -17 -17 -17 -17 -17 -17 -17 -18 -18 -18 -18 -18 -18 -18 -18 -19 -19 -20 -21 -21 -22 -22 -22 -23 -23 -24 -24 -24 -24 -25 -25 -26 -27 -28 -29 -30 -31 -32 -32 -33 -33
-16 -17 -17 -17 -17 -17 -18 -18 -18 -18 -18 -18 -18 -18 -19 -19 -19 -19 -20 -20 -21 -21 -22 -22 -22 -23 -23 -24 -24 -24 -25 -25 -25 -26 -27 -28 -29 -30 -31 -32 -33 -33 -33 -33
-18 -18 -17 -17 -17 -17 -18 -18 -18 -18 -19 -19 -19 -19 -19 -19 -20 -20 -20 -21 -21 -22 -22 -23 -23 -23 -24 -24 -24 -25 -25 -25 -26 -27 -28 -29 -30 -30 -32 -32 -33 -33 -33 -33

GFSCGP_500_temp_006.txt.gz
Temp
-16 -16 -17 -17 -17 -17 -16 -16 -16 -16 -16 -16 -16 -16 -16 -16 -16 -16 -16 -16 -15 -15 -15 -15 -15 -15 -15 -15 -15 -15 -16 -16 -16 -16 -16 -15 -15 -17 -17 -17 -17 -17 -18 -17
-17 -17 -17 -17 -16 -16 -16 -16 -17 -16 -16 -16 -16 -16 -16 -16 -16 -16 -16 -16 -15 -15 -15 -15 -15 -16 -16 -16 -16 -16 -16 -16 -16 -16 -16 -16 -17 -16 -16 -16 -16 -16 -17 -18
-17 -17 -17 -17 -17 -17 -16 -17 -17 -16 -16 -16 -16 -16 -16 -16 -16 -16 -15 -15 -15 -15 -15 -16 -16 -16 -16 -16 -16 -16 -16 -15 -15 -16 -16 -16 -16 -16 -17 -17 -18 -18 -19 -19
-17 -17 -17 -17 -17 -17 -17 -17 -17 -16 -16 -16 -16 -15 -15 -15 -15 -16 -16 -15 -15 -16 -16 -16 -16 -16 -16 -16 -16 -16 -15 -15 -16 -16 -16 -16 -17 -17 -18 -19 -19 -19 -19 -19
-17 -17 -17 -17 -17 -16 -17 -17 -17 -16 -16 -16 -16 -16 -15 -15 -15 -15 -15 -15 -16 -16 -16 -16 -16 -16 -16 -15 -15 -15 -15 -16 -16 -15 -15 -16 -17 -17 -17 -18 -18 -18 -19 -19
-17 -17 -17 -17 -17 -17 -17 -16 -16 -16 -16 -16 -15 -15 -16 -15 -15 -15 -15 -15 -16 -16 -16 -16 -16 -15 -15 -15 -15 -15 -15 -15 -15 -15 -16 -16 -17 -17 -17 -18 -18 -19 -19 -19
-17 -17 -17 -17 -17 -17 -16 -16 -16 -16 -16 -15 -15 -15 -15 -15 -15 -15 -15 -15 -16 -16 -15 -15 -15 -15 -15 -15 -15 -15 -15 -16 -16 -16 -16 -17 -17 -17 -17 -18 -18 -18 -19 -19
-17 -17 -17 -17 -16 -16 -16 -16 -16 -16 -15 -16 -15 -15 -15 -15 -15 -15 -15 -15 -15 -15 -15 -15 -15 -15 -15 -15 -15 -15 -16 -16 -16 -17 -17 -17 -17 -17 -18 -18 -18 -19 -19 -19
-16 -16 -16 -16 -16 -16 -16 -16 -16 -16 -15 -15 -15 -15 -15 -15 -15 -14 -14 -15 -15 -15 -15 -15 -15 -15 -15 -15 -15 -16 -16 -16 -16 -17 -17 -18 -18 -18 -18 -19 -19 -19 -19 -19
-16 -16 -16 -16 -16 -16 -16 -15 -15 -15 -15 -15 -15 -15 -15 -15 -14 -14 -14 -14 -15 -15 -15 -15 -15 -15 -16 -16 -16 -16 -16 -16 -16 -17 -18 -18 -18 -19 -19 -19 -20 -20 -20 -20
-16 -16 -15 -15 -15 -15 -15 -15 -15 -15 -15 -15 -15 -15 -15 -15 -15 -15 -15 -15 -15 -15 -15 -15 -16 -16 -16 -16 -16 -16 -16 -16 -17 -17 -18 -18 -19 -19 -20 -20 -20 -20 -20 -20
-16 -16 -16 -16 -15 -15 -15 -15 -15 -15 -15 -15 -15 -15 -15 -15 -15 -15 -15 -15 -15 -15 -15 -15 -16 -16 -16 -16 -16 -16 -17 -17 -17 -18 -18 -19 -20 -20 -20 -20 -20 -21 -21 -21
-16 -15 -15 -15 -15 -15 -15 -15 -15 -15 -15 -15 -15 -15 -15 -15 -15 -15 -15 -15 -15 -15 -15 -16 -16 -16 -16 -16 -16 -17 -17 -18 -18 -18 -19 -19 -20 -20 -20 -21 -21 -21 -21 -22
-16 -15 -15 -15 -16 -15 -15 -15 -15 -15 -15 -15 -15 -15 -15 -15 -15 -15 -15 -15 -16 -16 -16 -16 -16 -16 -17 -17 -17 -17 -18 -18 -19 -19 -19 -20 -20 -21 -21 -21 -21 -22 -22 -22
-15 -15 -15 -15 -15 -15 -15 -15 -15 -15 -15 -15 -15 -15 -16 -15 -15 -15 -15 -16 -16 -16 -16 -16 -16 -17 -17 -17 -17 -18 -18 -19 -19 -20 -20 -20 -21 -21 -21 -22 -22 -22 -23 -22
-15 -15 -15 -15 -15 -15 -15 -15 -15 -15 -15 -15 -15 -15 -16 -16 -16 -16 -16 -16 -16 -16 -16 -17 -17 -17 -17 -18 -18 -18 -19 -20 -20 -20 -20 -21 -21 -22 -22 -23 -23 -23 -23 -23
-15 -15 -15 -15 -15 -15 -15 -15 -15 -15 -15 -16 -15 -16 -16 -16 -16 -16 -16 -16 -16 -17 -17 -17 -17 -18 -18 -18 -18 -19 -19 -20 -20 -20 -21 -21 -22 -22 -23 -23 -23 -23 -23 -24
-15 -15 -15 -15 -15 -15 -15 -15 -15 -15 -16 -16 -16 -16 -16 -16 -16 -16 -16 -17 -17 -17 -17 -18 -18 -18 -18 -19 -19 -19 -20 -20 -21 -21 -22 -22 -22 -23 -23 -23 -24 -23 -24 -24
-15 -15 -15 -15 -15 -15 -15 -15 -15 -15 -15 -16 -16 -16 -16 -16 -16 -17 -17 -17 -17 -18 -18 -18 -18 -19 -19 -19 -19 -20 -20 -21 -21 -22 -22 -22 -23 -23 -23 -24 -24 -24 -24 -25
-15 -15 -15 -15 -15 -14 -15 -15 -15 -15 -15 -15 -16 -16 -16 -16 -17 -17 -17 -18 -18 -18 -18 -18 -19 -19 -19 -19 -20 -20 -21 -21 -21 -22 -22 -23 -23 -24 -24 -24 -24 -24 -25 -26
-15 -15 -15 -15 -15 -14 -15 -15 -15 -15 -15 -16 -16 -16 -17 -17 -17 -18 -18 -18 -18 -18 -19 -19 -19 -19 -20 -20 -20 -21 -21 -21 -22 -22 -23 -23 -24 -24 -25 -24 -24 -25 -25 -27
-15 -15 -15 -15 -15 -14 -15 -15 -15 -15 -16 -16 -16 -16 -17 -17 -18 -18 -18 -18 -19 -19 -19 -19 -20 -20 -20 -20 -20 -21 -21 -22 -22 -23 -23 -24 -24 -25 -24 -25 -25 -26 -27 -28
-15 -15 -15 -15 -15 -15 -15 -15 -15 -15 -16 -16 -17 -17 -17 -17 -18 -18 -18 -19 -19 -19 -20 -19 -20 -20 -20 -21 -21 -21 -22 -22 -23 -23 -23 -24 -24 -24 -25 -25 -26 -27 -28 -29
-15 -15 -15 -15 -16 -15 -15 -16 -16 -16 -16 -17 -17 -17 -18 -18 -18 -19 -19 -19 -19 -19 -20 -20 -20 -20 -20 -21 -22 -21 -22 -23 -23 -23 -24 -24 -24 -25 -25 -26 -27 -28 -29 -30
-15 -15 -16 -15 -16 -16 -16 -17 -17 -17 -17 -17 -18 -18 -18 -19 -19 -19 -19 -19 -19 -20 -20 -20 -20 -21 -21 -21 -22 -22 -22 -22 -23 -24 -24 -24 -24 -26 -26 -27 -28 -29 -29 -31
-16 -15 -16 -16 -17 -17 -17 -17 -17 -17 -18 -18 -18 -18 -19 -19 -19 -19 -19 -19 -20 -20 -20 -21 -21 -21 -21 -21 -21 -22 -22 -23 -23 -24 -24 -25 -26 -27 -28 -28 -29 -30 -30 -32

GFSCGP_500_temp_012.txt.gz
Temp
-17 -17 -16 -16 -16 -16 -16 -16 -16 -16 -16 -16 -16 -15 -15 -15 -15 -15 -15 -15 -14 -15 -15 -15 -15 -15 -15 -15 -16 -15 -16 -16 -16 -15 -15 -15 -14 -14 -15 -14 -14 -15 -15 -15
-17 -16 -16 -16 -16 -16 -16 -16 -16 -16 -15 -15 -16 -16 -15 -15 -15 -15 -15 -15 -15 -15 -15 -15 -15 -15 -15 -16 -16 -16 -16 -15 -15 -15 -15 -14 -14 -14 -15 -15 -15 -15 -16 -16
-16 -16 -16 -16 -16 -16 -16 -16 -15 -16 -15 -16 -16 -16 -16 -15 -15 -16 -15 -15 -15 -15 -15 -15 -16 -16 -16 -16 -16 -15 -16 -15 -15 -15 -15 -14 -14 -14 -15 -15 -15 -16 -16 -16
-16 -16 -16 -16 -16 -16 -16 -15 -16 -15 -15 -15 -16 -15 -15 -16 -15 -15 -15 -15 -15 -15 -15 -15 -16 -16 -16 -16 -16 -15 -15 -15 -15 -15 -15 -15 -15 -15 -15 -15 -15 -16 -16 -16
-16 -16 -16 -16 -16 -16 -16 -16 -16 -16 -16 -16 -15 -16 -15 -15 -15 -15 -16 -16 -15 -15 -15 -15 -15 -16 -16 -16 -15 -15 -15 -15 -15 -15 -15 -15 -15 -15 -15 -16 -16 -16 -17 -17
-17 -16 -16 -16 -16 -16 -16 -16 -16 -16 -16 -16 -15 -15 -15 -15 -15 -16 -16 -16 -16 -15 -15 -15 -15 -15 -15 -15 -15 -15 -15 -15 -15 -15 -15 -15 -15 -16 -16 -16 -16 -17 -17 -18
-16 -16 -16 -16 -16 -16 -16 -16 -16 -16 -16 -15 -15 -15 -15 -15 -15 -15 -15 -15 -15 -15 -15 -15 -15 -15 -15 -15 -15 -15 -15 -15 -15 -15 -16 -16 -16 -16 -16 -17 -17 -17 -17 -18
-16 -17 -16 -16 -16 -16 -16 -16 -16 -15 -15 -15 -15 -15 -15 -15 -15 -15 -15 -15 -15 -15 -15 -15 -15 -14 -14 -14 -15 -15 -15 -15 -15 -15 -16 -16 -16 -17 -17 -17 -17 -18 -18 -19
-15 -15 -15 -16 -16 -16 -16 -17 -16 -16 -16 -16 -15 -15 -15 -15 -15 -16 -15 -14 -14 -14 -14 -14 -14 -15 -15 -15 -15 -15 -15 -15 -15 -16 -16 -17 -17 -17 -17 -17 -18 -18 -19 -19
-16 -16 -16 -16 -16 -16 -16 -16 -15 -16 -15 -15 -15 -15 -15 -15 -15 -15 -15 -14 -14 -15 -15 -15 -15 -15 -15 -15 -15 -15 -15 -16 -16 -16 -17 -17 -17 -17 -17 -18 -18 -19 -19 -20
-17 -16 -16 -15 -15 -16 -16 -16 -15 -16 -16 -15 -15 -16 -16 -15 -15 -15 -15 -14 -14 -14 -15 -15 -15 -15 -15 -15 -15 -16 -16 -16 -16 -17 -17 -17 -18 -18 -18 -19 -19 -20 -20 -20
-16 -16 -16 -15 -15 -15 -15 -16 -15 -15 -15 -15 -15 -15 -15 -15 -15 -15 -15 -15 -14 -14 -15 -15 -15 -15 -15 -16 -16 -16 -16 -16 -17 -17 -17 -18 -18 -19 -19 -19 -19 -20 -20 -20
-16 -15 -16 -16 -16 -15 -15 -16 -16 -16 -15 -15 -15 -15 -15 -15 -15 -15 -15 -15 -15 -15 -15 -15 -15 -15 -16 -16 -16 -16 -17 -17 -17 -18 -18 -18 -19 -19 -19 -20 -20 -20 -20 -21
-16 -16 -16 -16 -16 -17 -16 -16 -16 -16 -15 -15 -15 -15 -16 -15 -14 -14 -15 -15 -15 -15 -15 -16 -16 -16 -16 -16 -17 -17 -17 -18 -18 -18 -19 -19 -19 -20 -20 -20 -20 -21 -21 -21
-16 -16 -16 -16 -17 -16 -17 -16 -16 -15 -15 -15 -15 -15 -16 -17 -16 -15 -15 -15 -15 -16 -16 -16 -16 -16 -16 -17 -17 -18 -18 -18 -19 -19 -19 -20 -20 -20 -20 -20 -21 -21 -21 -21
-15 -15 -16 -15 -16 -16 -16 -15 -15 -15 -15 -15 -15 -15 -16 -15 -15 -15 -15 -16 -16 -16 -17 -17 -17 -17 -17 -17 -18 -18 -19 -19 -19 -20 -20 -20 -20 -20 -20 -21 -21 -21 -21 -21
-15 -15 -15 -15 -15 -15 -15 -15 -15 -15 -15 -15 -15 -16 -16 -16 -15 -15 -16 -16 -15 -16 -16 -17 -17 -18 -18 -18 -18 -18 -19 -19 -19 -20 -20 -20 -20 -20 -21 -21 -22 -22 -22 -22
-15 -16 -15 -15 -15 -15 -15 -15 -15 -15 -15 -16 -16 -16 -16 -15 -15 -16 -16 -15 -16 -16 -17 -17 -17 -17 -18 -18 -18 -18 -19 -19 -19 -20 -20 -20 -20 -21 -21 -22 -22 -22 -22 -22
-16 -16 -15 -15 -15 -15 -15 -15 -15 -15 -16 -15 -15 -16 -16 -15 -16 -16 -15 -15 -16 -16 -16 -17 -17 -17 -18 -18 -19 -19 -19 -20 -20 -20 -20 -20 -21 -21 -21 -21 -21 -22 -22 -23
-16 -16 -16 -16 -16 -15 -15 -15 -15 -15 -15 -14 -15 -15 -15 -15 -15 -16 -16 -16 -16 -17 -17 -17 -18 -18 -18 -19 -19 -19 -20 -20 -20 -20 -20 -21 -21 -21 -21 -21 -22 -22 -23 -25
-15 -15 -15 -15 -15 -15 -15 -15 -15 -15 -15 -15 -15 -15 -15 -15 -16 -16 -16 -16 -17 -17 -17 -18 -18 -19 -19 -19 -19 -19 -20 -20 -20 -21 -21 -21 -21 -22 -21 -22 -23 -24 -25 -25
-15 -15 -15 -15 -15 -15 -15 -15 -15 -15 -15 -15 -15 -15 -15 -15 -16 -16 -17 -17 -17 -18 -18 -18 -18 -19 -19 -19 -20 -20 -20 -20 -21 -21 -22 -22 -22 -23 -22 -23 -24 -25 -24 -25
-15 -15 -15 -15 -15 -15 -15 -15 -15 -15 -15 -15 -15 -15 -16 -16 -16 -17 -17 -17 -17 -18 -18 -19 -19 -19 -19 -20 -20 -20 -20 -21 -22 -22 -22 -23 -23 -23 -23 -24 -25 -25 -26 -28
-15 -15 -15 -15 -15 -15 -15 -15 -15 -14 -15 -15 -16 -16 -16 -17 -17 -17 -17 -18 -18 -18 -18 -19 -19 -20 -20 -20 -20 -21 -21 -22 -22 -22 -23 -23 -23 -23 -24 -25 -25 -26 -28 -29
-16 -15 -15 -15 -16 -16 -16 -15 -15 -16 -16 -16 -16 -16 -17 -17 -17 -18 -18 -18 -18 -19 -19 -19 -19 -19 -20 -20 -21 -21 -22 -23 -23 -22 -23 -23 -24 -25 -25 -25 -28 -29 -29 -30
-16 -15 -16 -16 -15 -16 -16 -15 -16 -16 -16 -17 -17 -17 -17 -18 -18 -18 -18 -19 -19 -19 -19 -20 -20 -20 -20 -21 -21 -22 -23 -24 -24 -24 -25 -25 -25 -25 -27 -29 -29 -29 -30 -31

GFSCGP_500_temp_015.txt.gz
Temp
-17 -17 -17 -16 -16 -16 -16 -16 -16 -15 -15 -16 -16 -16 -16 -15 -14 -15 -15 -15 -15 -14 -14 -14 -14 -14 -14 -14 -14 -15 -15 -15 -15 -15 -15 -15 -15 -15 -15 -15 -15 -15 -15 -16
-17 -17 -16 -16 -16 -15 -16 -16 -16 -16 -16 -16 -16 -16 -16 -15 -15 -15 -15 -15 -14 -14 -14 -14 -14 -14 -14 -14 -15 -15 -15 -15 -15 -15 -15 -15 -15 -15 -15 -15 -15 -15 -16 -16
-16 -16 -16 -16 -15 -16 -16 -16 -16 -16 -16 -16 -16 -16 -16 -15 -15 -15 -15 -15 -15 -15 -15 -15 -14 -14 -14 -15 -15 -16 -15 -15 -14 -14 -14 -14 -14 -15 -15 -15 -16 -16 -16 -16
-16 -16 -16 -16 -16 -17 -16 -16 -16 -16 -16 -15 -16 -16 -16 -16 -15 -16 -16 -15 -15 -15 -15 -15 -15 -14 -14 -14 -15 -15 -15 -15 -15 -15 -14 -14 -15 -15 -15 -16 -16 -16 -16 -16
-16 -16 -16 -16 -16 -15 -16 -16 -16 -15 -16 -15 -15 -15 -16 -15 -15 -15 -16 -16 -15 -14 -15 -15 -15 -15 -15 -15 -15 -15 -15 -15 -15 -15 -15 -15 -15 -15 -16 -16 -16 -16 -16 -16
-16 -15 -15 -15 -15 -16 -16 -15 -15 -16 -16 -16 -16 -15 -16 -15 -15 -15 -15 -15 -15 -15 -15 -15 -15 -15 -15 -15 -15 -15 -15 -15 -15 -15 -15 -15 -16 -16 -16 -16 -16 -16 -17 -17
-16 -16 -16 -16 -16 -16 -15 -16 -16 -16 -16 -15 -16 -15 -15 -15 -15 -16 -15 -15 -15 -15 -15 -15 -15 -15 -15 -15 -15 -15 -15 -15 -15 -15 -16 -16 -16 -16 -16 -16 -17 -17 -17 -18
-16 -17 -17 -17 -16 -17 -16 -16 -16 -16 -16 -15 -16 -16 -15 -16 -15 -15 -15 -15 -15 -15 -15 -15 -15 -15 -15 -15 -15 -15 -15 -15 -16 -16 -16 -16 -16 -16 -17 -17 -17 -18 -18 -18
-16 -16 -17 -17 -17 -17 -17 -17 -16 -17 -16 -16 -16 -16 -16 -16 -15 -15 -15 -15 -15 -15 -15 -15 -15 -15 -15 -15 -15 -15 -15 -15 -16 -16 -16 -16 -17 -17 -17 -18 -18 -19 -19 -19
-17 -17 -16 -16 -16 -16 -17 -17 -16 -16 -16 -15 -15 -16 -15 -16 -15 -15 -15 -15 -15 -15 -15 -15 -15 -15 -15 -15 -15 -15 -15 -16 -16 -16 -17 -17 -17 -18 -18 -18 -19 -19 -19 -20
-17 -16 -17 -16 -17 -16 -16 -16 -16 -16 -16 -15 -15 -16 -16 -15 -15 -15 -15 -15 -15 -15 -15 -15 -15 -15 -15 -16 -16 -16 -16 -16 -16 -17 -17 -18 -18 -19 -19 -19 -19 -19 -19 -20
-16 -16 -16 -16 -16 -16 -16 -16 -16 -16 -16 -16 -15 -15 -16 -16 -16 -16 -16 -15 -15 -15 -15 -15 -15 -15 -15 -15 -16 -16 -16 -16 -17 -17 -18 -18 -19 -19 -19 -19 -19 -20 -20 -20
-16 -16 -16 -16 -16 -16 -16 -16 -16 -16 -15 -15 -15 -15 -16 -16 -16 -16 -15 -15 -15 -15 -15 -15 -15 -15 -15 -15 -16 -16 -17 -17 -17 -18 -18 -19 -19 -19 -19 -19 -19 -20 -20 -20
-16 -16 -16 -16 -16 -16 -16 -16 -16 -16 -15 -15 -15 -15 -16 -16 -15 -15 -15 -15 -16 -15 -15 -15 -15 -15 -14 -15 -15 -16 -16 -17 -17 -18 -18 -19 -19 -19 -19 -20 -20 -20 -20 -20
-16 -16 -16 -16 -16 -16 -16 -16 -16 -16 -16 -15 -16 -15 -16 -16 -15 -15 -14 -14 -15 -16 -16 -16 -16 -16 -15 -16 -16 -17 -17 -18 -18 -18 -19 -19 -18 -19 -20 -20 -19 -20 -20 -20
-16 -15 -15 -16 -16 -16 -16 -16 -16 -16 -16 -15 -15 -15 -16 -16 -15 -15 -15 -15 -16 -15 -16 -17 -17 -16 -17 -17 -17 -18 -18 -18 -18 -19 -19 -19 -19 -20 -20 -20 -20 -21 -20 -21
-15 -15 -15 -15 -15 -15 -15 -16 -16 -16 -16 -16 -16 -16 -16 -16 -15 -15 -15 -16 -16 -16 -16 -17 -17 -17 -17 -17 -18 -18 -18 -18 -19 -19 -19 -19 -20 -20 -20 -21 -20 -21 -21 -22
-16 -16 -15 -15 -15 -15 -16 -15 -16 -16 -16 -16 -15 -15 -15 -15 -15 -16 -16 -15 -16 -16 -16 -16 -16 -17 -17 -17 -18 -18 -18 -19 -19 -19 -19 -20 -20 -20 -20 -21 -22 -22 -22 -23
-16 -16 -16 -15 -15 -15 -15 -15 -16 -16 -16 -16 -16 -15 -16 -16 -16 -16 -16 -16 -16 -16 -16 -16 -16 -17 -18 -19 -19 -19 -19 -19 -19 -19 -19 -20 -20 -21 -21 -22 -22 -23 -23 -23
-16 -16 -16 -15 -15 -15 -15 -15 -15 -16 -15 -15 -16 -16 -16 -16 -16 -16 -16 -16 -16 -16 -16 -16 -17 -18 -18 -18 -18 -19 -19 -19 -19 -20 -20 -20 -21 -21 -22 -22 -23 -23 -23 -24
-16 -15 -15 -16 -15 -15 -15 -15 -16 -15 -15 -15 -15 -15 -15 -15 -15 -16 -16 -16 -15 -16 -18 -18 -18 -18 -18 -19 -19 -19 -19 -20 -20 -20 -21 -21 -22 -23 -23 -23 -23 -23 -24 -25
-16 -16 -16 -15 -15 -15 -15 -15 -15 -15 -15 -15 -15 -15 -15 -15 -15 -16 -16 -16 -16 -17 -17 -18 -18 -19 -19 -19 -20 -20 -20 -21 -21 -21 -21 -22 -23 -23 -24 -23 -23 -24 -25 -26
-16 -16 -16 -16 -16 -15 -15 -15 -15 -15 -15 -15 -15 -15 -15 -15 -16 -16 -16 -17 -17 -17 -18 -18 -19 -19 -20 -20 -20 -20 -20 -21 -21 -21 -22 -23 -24 -24 -25 -24 -25 -26 -26 -27
-16 -16 -16 -16 -16 -15 -15 -15 -15 -15 -15 -15 -15 -15 -16 -16 -16 -17 -18 -18 -18 -17 -18 -18 -19 -19 -20 -20 -20 -20 -21 -21 -22 -22 -23 -23 -24 -25 -26 -26 -26 -27 -29 -30
-16 -16 -16 -16 -16 -15 -15 -15 -15 -15 -15 -15 -15 -16 -16 -17 -17 -18 -18 -18 -18 -18 -18 -19 -19 -20 -20 -20 -20 -21 -21 -22 -23 -23 -23 -24 -24 -26 -27 -27 -28 -29 -29 -30
-16 -16 -16 -16 -16 -16 -16 -16 -16 -16 -16 -16 -16 -17 -17 -18 -18 -18 -18 -18 -19 -19 -20 -20 -20 -20 -20 -20 -21 -21 -22 -23 -23 -23 -23 -24 -25 -26 -28 -28 -29 -30 -30 -30

GFSCGP_500_temp_018.txt.gz
Temp
-16 -17 -17 -17 -16 -16 -16 -16 -16 -16 -16 -16 -16 -15 -16 -16 -15 -15 -15 -16 -15 -14 -14 -14 -14 -14 -15 -15 -15 -15 -15 -15 -15 -15 -15 -15 -15 -15 -15 -15 -15 -15 -15 -16
-17 -16 -16 -16 -17 -16 -16 -16 -16 -16 -16 -16 -16 -16 -16 -16 -15 -15 -15 -16 -15 -15 -15 -15 -15 -15 -15 -15 -15 -15 -15 -16 -15 -15 -15 -15 -15 -15 -15 -15 -15 -15 -16 -16
-16 -17 -16 -17 -16 -16 -16 -16 -16 -16 -16 -16 -16 -16 -15 -15 -16 -15 -15 -15 -15 -15 -15 -14 -15 -15 -15 -15 -15 -15 -15 -15 -15 -15 -15 -15 -15 -15 -15 -15 -16 -16 -16 -16
-16 -16 -16 -16 -16 -16 -16 -16 -16 -17 -17 -17 -16 -16 -15 -15 -15 -15 -15 -14 -14 -15 -15 -15 -15 -15 -15 -15 -15 -15 -15 -15 -15 -15 -15 -15 -15 -15 -16 -16 -16 -16 -16 -16
-16 -15 -15 -16 -16 -15 -16 -16 -16 -16 -16 -16 -16 -16 -16 -16 -15 -15 -15 -14 -15 -14 -15 -15 -15 -15 -15 -15 -15 -15 -16 -16 -16 -15 -15 -15 -16 -16 -16 -16 -16 -16 -16 -17
-16 -15 -15 -16 -16 -16 -16 -16 -15 -16 -16 -16 -16 -16 -16 -16 -16 -16 -15 -14 -14 -14 -15 -15 -15 -15 -15 -15 -15 -15 -15 -15 -15 -15 -15 -15 -15 -15 -16 -16 -16 -17 -17 -17
-16 -15 -15 -16 -16 -16 -16 -16 -16 -16 -16 -16 -16 -15 -15 -15 -15 -15 -15 -15 -15 -15 -15 -15 -15 -15 -15 -15 -15 -15 -15 -15 -15 -15 -15 -15 -15 -16 -16 -16 -16 -17 -17 -17
-17 -16 -16 -16 -15 -15 -16 -16 -16 -16 -16 -16 -16 -16 -15 -16 -15 -15 -15 -15 -15 -16 -16 -15 -15 -15 -15 -15 -15 -15 -15 -15 -15 -16 -16 -16 -16 -16 -16 -17 -17 -18 -18 -18
-17 -16 -16 -16 -15 -15 -16 -16 -16 -16 -16 -16 -16 -16 -15 -16 -15 -15 -15 -15 -15 -15 -15 -15 -15 -15 -15 -15 -15 -16 -16 -16 -16 -16 -16 -16 -16 -17 -17 -18 -18 -18 -19 -19
-17 -17 -17 -16 -16 -16 -16 -17 -17 -17 -17 -16 -15 -15 -15 -15 -15 -15 -15 -15 -16 -15 -15 -15 -15 -15 -15 -15 -15 -15 -16 -16 -16 -16 -16 -17 -17 -18 -18 -19 -19 -19 -19 -19
-17 -17 -17 -17 -16 -16 -17 -17 -17 -17 -17 -16 -15 -16 -15 -15 -16 -16 -15 -15 -15 -15 -15 -15 -15 -16 -16 -15 -15 -16 -16 -16 -16 -16 -17 -17 -18 -18 -19 -19 -19 -19 -19 -20
-17 -18 -17 -16 -17 -16 -17 -17 -17 -16 -16 -16 -16 -15 -16 -16 -16 -16 -15 -15 -15 -15 -15 -15 -16 -16 -16 -16 -16 -16 -16 -16 -16 -17 -18 -18 -18 -18 -18 -18 -19 -19 -20 -20
-17 -17 -17 -16 -17 -16 -16 -16 -16 -16 -16 -16 -16 -15 -16 -16 -16 -16 -15 -15 -15 -15 -15 -15 -15 -15 -15 -15 -15 -16 -16 -16 -17 -17 -18 -18 -18 -19 -18 -19 -19 -20 -20 -20
-17 -17 -16 -16 -16 -17 -16 -17 -17 -16 -16 -15 -15 -16 -17 -16 -16 -16 -15 -15 -15 -15 -15 -15 -15 -14 -15 -15 -15 -15 -15 -16 -17 -17 -17 -18 -18 -18 -19 -19 -19 -19 -20 -20
-17 -16 -16 -16 -16 -16 -16 -16 -16 -16 -16 -16 -16 -16 -16 -16 -15 -15 -15 -15 -15 -15 -15 -15 -15 -15 -15 -15 -16 -16 -17 -18 -18 -18 -18 -18 -18 -19 -19 -19 -19 -20 -20 -20
-17 -17 -17 -16 -16 -16 -16 -16 -16 -16 -17 -17 -16 -16 -16 -16 -15 -16 -15 -15 -15 -15 -15 -15 -15 -16 -16 -16 -16 -17 -18 -18 -18 -18 -18 -18 -19 -19 -19 -19 -20 -20 -20 -21
-16 -16 -16 -16 -16 -16 -16 -15 -16 -17 -17 -16 -16 -16 -15 -15 -16 -15 -15 -16 -16 -16 -16 -16 -17 -17 -16 -17 -17 -17 -17 -17 -17 -18 -18 -19 -19 -20 -20 -20 -20 -20 -21 -22
-16 -16 -16 -16 -15 -15 -15 -16 -16 -16 -16 -16 -16 -16 -16 -16 -16 -16 -16 -16 -16 -16 -16 -16 -16 -16 -16 -16 -17 -17 -17 -18 -18 -19 -20 -20 -20 -20 -20 -20 -20 -21 -22 -23
-16 -17 -16 -16 -16 -15 -16 -16 -16 -16 -16 -16 -16 -16 -16 -16 -16 -16 -16 -15 -16 -16 -16 -16 -16 -16 -16 -17 -17 -18 -18 -19 -19 -19 -20 -20 -20 -20 -20 -21 -21 -23 -23 -23
-16 -16 -16 -16 -16 -16 -16 -16 -16 -16 -16 -16 -16 -16 -16 -16 -16 -16 -16 -16 -16 -17 -17 -16 -16 -16 -16 -17 -17 -18 -18 -19 -19 -20 -20 -20 -20 -22 -21 -21 -23 -23 -23 -23
-16 -16 -16 -16 -16 -16 -16 -16 -16 -16 -16 -16 -16 -16 -16 -16 -16 -16 -16 -16 -16 -16 -16 -16 -17 -17 -17 -18 -18 -19 -19 -19 -20 -20 -21 -21 -22 -21 -22 -23 -23 -23 -24 -25
-16 -16 -16 -16 -16 -16 -16 -16 -16 -16 -16 -16 -16 -16 -16 -15 -15 -15 -15 -15 -15 -16 -16 -17 -17 -18 -18 -18 -19 -19 -20 -20 -20 -21 -21 -21 -21 -22 -23 -23 -24 -24 -25 -25
-16 -16 -16 -16 -16 -16 -16 -16 -15 -16 -16 -16 -16 -15 -15 -15 -15 -15 -16 -16 -16 -16 -17 -17 -18 -18 -19 -19 -19 -20 -20 -20 -21 -21 -21 -22 -22 -23 -23 -24 -24 -24 -26 -28
-16 -16 -16 -16 -16 -16 -16 -16 -16 -16 -16 -15 -15 -15 -16 -16 -16 -16 -16 -17 -17 -17 -18 -18 -18 -19 -19 -20 -20 -21 -21 -21 -21 -21 -22 -23 -23 -24 -24 -24 -24 -26 -27 -29
-16 -16 -16 -16 -16 -16 -16 -16 -16 -16 -16 -16 -16 -16 -16 -16 -16 -16 -17 -17 -18 -18 -18 -18 -19 -19 -20 -20 -21 -21 -21 -21 -21 -22 -23 -23 -23 -24 -24 -25 -26 -27 -29 -30
-16 -16 -16 -16 -16 -16 -16 -16 -16 -16 -16 -16 -16 -16 -16 -16 -17 -17 -17 -18 -18 -18 -19 -19 -20 -20 -21 -21 -21 -21 -21 -21 -22 -23 -23 -24 -24 -24 -25 -26 -27 -29 -30 -30

GFSCGP_500_temp_021.txt.gz
Temp
-16 -17 -17 -17 -17 -16 -16 -15 -16 -16 -16 -16 -15 -16 -16 -16 -16 -16 -15 -15 -15 -15 -15 -15 -14 -15 -14 -14 -15 -15 -15 -16 -15 -15 -15 -15 -15 -15 -15 -15 -15 -15 -15 -15
-16 -17 -17 -17 -17 -16 -16 -16 -16 -17 -17 -16 -15 -16 -15 -15 -15 -15 -15 -15 -15 -15 -15 -15 -15 -15 -15 -15 -15 -15 -16 -15 -15 -15 -15 -15 -15 -15 -15 -15 -15 -15 -15 -16
-16 -16 -17 -17 -17 -16 -16 -16 -16 -16 -16 -16 -16 -16 -16 -15 -15 -15 -15 -15 -15 -15 -15 -15 -15 -15 -15 -15 -15 -15 -16 -16 -16 -15 -15 -15 -15 -15 -15 -15 -15 -15 -16 -16
-15 -15 -16 -17 -17 -17 -16 -17 -16 -16 -16 -16 -16 -16 -15 -15 -15 -15 -15 -15 -15 -15 -15 -15 -15 -16 -16 -16 -16 -15 -16 -16 -16 -16 -15 -15 -15 -16 -16 -16 -16 -16 -16 -16
-15 -15 -15 -16 -16 -17 -16 -16 -16 -15 -16 -17 -16 -16 -15 -15 -15 -15 -15 -15 -15 -15 -16 -15 -16 -16 -16 -16 -16 -15 -16 -16 -16 -15 -16 -15 -16 -16 -16 -16 -16 -16 -16 -16
-15 -14 -15 -15 -16 -16 -16 -16 -16 -16 -16 -16 -16 -16 -15 -15 -15 -15 -15 -15 -16 -15 -15 -16 -16 -16 -15 -15 -15 -16 -15 -16 -16 -16 -16 -16 -16 -16 -16 -16 -16 -17 -17 -16
-15 -16 -15 -16 -16 -16 -15 -15 -16 -16 -16 -16 -16 -16 -15 -16 -15 -15 -14 -15 -16 -16 -15 -15 -16 -15 -16 -15 -15 -15 -15 -15 -16 -15 -15 -16 -16 -16 -16 -17 -17 -17 -16 -17
-16 -16 -15 -15 -16 -16 -16 -16 -16 -16 -16 -15 -15 -15 -15 -15 -15 -16 -16 -15 -15 -15 -15 -15 -15 -16 -16 -16 -16 -15 -15 -16 -16 -16 -16 -16 -16 -16 -16 -17 -17 -16 -17 -17
-16 -16 -16 -16 -17 -17 -16 -16 -16 -16 -16 -16 -16 -16 -15 -16 -16 -15 -16 -15 -15 -15 -15 -15 -15 -15 -15 -15 -15 -16 -16 -16 -16 -16 -16 -16 -16 -16 -16 -16 -16 -17 -17 -18
-16 -17 -17 -17 -16 -17 -17 -16 -16 -16 -16 -16 -16 -16 -16 -16 -16 -16 -15 -15 -15 -15 -15 -15 -15 -15 -15 -15 -16 -16 -16 -16 -16 -16 -16 -16 -16 -17 -16 -17 -17 -18 -18 -19
-16 -17 -17 -17 -17 -17 -17 -17 -16 -16 -17 -16 -16 -16 -16 -16 -15 -15 -15 -15 -15 -15 -15 -15 -15 -15 -15 -15 -16 -16 -16 -16 -16 -16 -16 -16 -16 -17 -17 -18 -18 -18 -19 -19
-16 -17 -17 -17 -17 -17 -17 -17 -16 -16 -16 -16 -16 -15 -16 -16 -16 -15 -15 -15 -16 -16 -16 -15 -15 -15 -16 -16 -16 -16 -16 -16 -16 -16 -16 -16 -17 -17 -18 -18 -19 -19 -19 -19
-16 -16 -16 -17 -17 -16 -16 -17 -17 -17 -16 -16 -16 -15 -16 -16 -16 -15 -15 -15 -16 -16 -15 -16 -16 -16 -16 -15 -15 -15 -15 -16 -16 -16 -16 -17 -17 -17 -18 -18 -19 -19 -19 -20
-17 -16 -17 -16 -16 -17 -17 -18 -17 -17 -16 -15 -15 -15 -16 -16 -16 -15 -15 -15 -15 -15 -16 -16 -16 -16 -15 -15 -15 -15 -15 -15 -16 -16 -16 -17 -17 -18 -19 -19 -19 -20 -20 -20
-17 -16 -17 -17 -17 -16 -17 -17 -17 -16 -16 -16 -16 -15 -16 -16 -16 -16 -15 -15 -15 -15 -15 -16 -15 -15 -15 -15 -15 -15 -15 -16 -16 -16 -17 -17 -17 -18 -19 -19 -19 -19 -20 -20
-16 -16 -17 -17 -17 -17 -16 -17 -17 -16 -16 -16 -16 -16 -16 -16 -16 -16 -16 -15 -15 -16 -16 -15 -15 -15 -15 -15 -14 -15 -15 -16 -16 -17 -17 -17 -18 -18 -19 -19 -19 -19 -20 -20
-16 -17 -17 -17 -17 -17 -16 -16 -16 -16 -16 -16 -16 -16 -16 -16 -16 -16 -16 -16 -16 -16 -15 -16 -16 -15 -15 -15 -15 -16 -16 -16 -16 -17 -17 -18 -18 -19 -19 -19 -20 -20 -20 -20
-16 -16 -17 -17 -17 -16 -15 -16 -16 -16 -16 -16 -16 -16 -16 -16 -16 -16 -16 -15 -16 -16 -16 -15 -15 -15 -15 -15 -16 -16 -16 -17 -17 -17 -18 -18 -19 -20 -20 -20 -20 -20 -20 -21
-16 -17 -17 -17 -16 -15 -15 -16 -16 -16 -16 -16 -16 -16 -16 -16 -16 -16 -16 -16 -16 -16 -15 -15 -15 -15 -15 -16 -16 -16 -17 -17 -17 -18 -18 -19 -20 -20 -20 -20 -20 -20 -21 -21
-16 -16 -16 -16 -16 -16 -16 -17 -16 -16 -16 -16 -16 -16 -16 -17 -16 -16 -16 -16 -16 -16 -16 -15 -15 -15 -15 -16 -16 -17 -17 -17 -18 -18 -19 -20 -20 -20 -20 -20 -21 -21 -22 -23
-16 -16 -16 -16 -16 -16 -16 -17 -17 -16 -16 -17 -17 -17 -16 -16 -16 -16 -16 -16 -16 -16 -16 -16 -16 -16 -16 -17 -17 -18 -18 -18 -19 -19 -20 -20 -20 -20 -20 -21 -21 -22 -23 -23
-16 -16 -16 -15 -15 -15 -17 -17 -16 -17 -17 -17 -17 -17 -17 -16 -16 -16 -16 -16 -16 -16 -16 -16 -16 -17 -17 -18 -18 -18 -18 -19 -20 -20 -20 -20 -20 -21 -21 -22 -23 -23 -24 -24
-16 -16 -16 -16 -16 -16 -16 -16 -16 -17 -17 -17 -17 -16 -16 -16 -16 -17 -16 -16 -16 -16 -16 -17 -17 -17 -18 -18 -18 -18 -19 -20 -20 -20 -21 -21 -21 -21 -22 -23 -24 -24 -24 -25
-16 -16 -16 -16 -16 -16 -16 -17 -17 -17 -17 -17 -17 -17 -16 -16 -16 -16 -17 -17 -17 -17 -17 -17 -17 -18 -18 -18 -19 -19 -20 -20 -21 -21 -21 -21 -21 -22 -23 -24 -24 -24 -25 -25
-17 -17 -16 -16 -16 -16 -16 -16 -17 -17 -17 -17 -17 -17 -17 -17 -17 -17 -17 -17 -17 -17 -17 -18 -18 -19 -19 -19 -19 -20 -21 -21 -21 -21 -21 -21 -22 -23 -24 -24 -24 -25 -26 -26
-17 -17 -17 -17 -17 -17 -17 -16 -16 -16 -16 -16 -16 -16 -17 -17 -17 -17 -17 -17 -17 -17 -18 -19 -19 -19 -19 -20 -20 -21 -21 -21 -21 -21 -22 -23 -23 -24 -24 -25 -25 -26 -27 -28

GFSCGP_500_temp_024.txt.gz
Temp
-16 -16 -17 -17 -18 -18 -17 -17 -16 -15 -15 -16 -16 -16 -15 -15 -16 -16 -16 -15 -15 -15 -15 -15 -15 -15 -15 -15 -15 -15 -15 -15 -15 -15 -15 -15 -15 -15 -15 -15 -15 -15 -15 -15
-16 -17 -17 -17 -18 -17 -17 -17 -16 -16 -16 -16 -16 -15 -15 -16 -15 -16 -16 -16 -15 -15 -15 -16 -15 -15 -15 -15 -15 -15 -15 -15 -15 -15 -15 -15 -15 -15 -15 -15 -15 -15 -15 -16
-16 -17 -17 -17 -17 -17 -17 -16 -16 -15 -15 -15 -15 -16 -16 -16 -16 -16 -16 -16 -16 -15 -15 -15 -15 -15 -15 -15 -16 -15 -16 -15 -16 -15 -15 -15 -15 -15 -15 -15 -15 -15 -16 -16
-16 -16 -16 -16 -16 -17 -16 -16 -16 -16 -16 -16 -17 -16 -16 -16 -16 -15 -15 -16 -16 -16 -16 -16 -15 -15 -15 -15 -15 -16 -16 -16 -16 -16 -15 -15 -15 -15 -15 -15 -16 -16 -16 -16
-16 -15 -16 -16 -16 -16 -17 -16 -16 -16 -16 -16 -16 -16 -16 -15 -15 -15 -15 -16 -15 -16 -16 -16 -16 -16 -16 -16 -15 -15 -16 -16 -16 -16 -16 -15 -15 -16 -16 -16 -16 -16 -16 -16
-15 -15 -15 -16 -16 -15 -16 -16 -16 -16 -15 -15 -15 -15 -15 -15 -15 -15 -15 -15 -15 -15 -15 -16 -16 -17 -17 -17 -17 -16 -16 -16 -16 -16 -16 -16 -16 -16 -16 -16 -16 -16 -17 -17
-16 -16 -15 -16 -16 -15 -16 -16 -16 -16 -15 -15 -15 -15 -14 -15 -15 -15 -15 -15 -15 -15 -15 -15 -16 -17 -17 -17 -17 -16 -16 -16 -16 -16 -16 -16 -16 -16 -16 -16 -16 -17 -17 -17
-16 -16 -15 -16 -16 -16 -16 -16 -15 -16 -15 -16 -16 -15 -15 -16 -16 -16 -15 -15 -15 -15 -15 -15 -16 -16 -16 -16 -16 -16 -15 -15 -16 -16 -16 -16 -16 -16 -16 -16 -17 -17 -17 -18
-16 -16 -16 -16 -16 -17 -16 -16 -16 -16 -16 -16 -16 -15 -15 -16 -16 -16 -16 -15 -15 -15 -15 -15 -15 -15 -15 -16 -16 -15 -15 -16 -16 -16 -16 -16 -16 -16 -16 -16 -17 -17 -17 -18
-16 -17 -17 -17 -17 -16 -16 -16 -16 -16 -16 -16 -16 -16 -16 -16 -16 -16 -16 -15 -15 -15 -15 -15 -15 -15 -15 -15 -15 -16 -16 -16 -16 -16 -16 -16 -16 -16 -16 -16 -17 -17 -17 -17
-16 -17 -17 -17 -17 -17 -17 -16 -16 -16 -16 -16 -15 -15 -16 -16 -16 -16 -16 -16 -16 -16 -16 -15 -15 -15 -16 -16 -16 -16 -16 -16 -16 -16 -16 -16 -16 -16 -16 -16 -17 -17 -17 -18
-16 -17 -17 -17 -17 -17 -17 -17 -16 -16 -16 -16 -16 -15 -16 -16 -16 -16 -16 -16 -16 -16 -16 -16 -16 -16 -16 -16 -16 -16 -16 -16 -16 -16 -16 -16 -16 -16 -17 -17 -17 -17 -18 -18
-17 -17 -17 -17 -17 -16 -16 -17 -17 -16 -16 -15 -16 -15 -16 -16 -16 -16 -16 -16 -15 -16 -16 -16 -16 -16 -16 -16 -16 -16 -16 -16 -16 -16 -16 -16 -16 -16 -17 -17 -17 -17 -18 -18
-17 -17 -17 -16 -16 -17 -17 -17 -17 -16 -16 -16 -16 -16 -16 -16 -16 -16 -16 -16 -16 -16 -16 -16 -16 -16 -16 -16 -16 -16 -16 -16 -16 -16 -16 -16 -16 -17 -17 -17 -17 -18 -18 -19
-17 -17 -17 -17 -17 -17 -17 -16 -16 -16 -16 -16 -16 -16 -16 -16 -17 -17 -17 -16 -16 -16 -16 -16 -16 -16 -16 -16 -16 -15 -15 -15 -15 -15 -16 -17 -17 -17 -17 -18 -18 -18 -19 -20
-17 -17 -17 -18 -18 -17 -17 -16 -16 -16 -16 -16 -16 -15 -16 -16 -17 -17 -17 -16 -16 -16 -16 -16 -16 -16 -15 -15 -15 -15 -15 -15 -15 -15 -16 -16 -17 -17 -18 -18 -18 -19 -20 -20
-17 -17 -17 -17 -17 -17 -16 -16 -16 -16 -16 -16 -15 -16 -16 -16 -17 -17 -17 -17 -17 -16 -16 -16 -16 -16 -15 -15 -15 -15 -15 -15 -15 -16 -16 -17 -17 -18 -18 -18 -20 -20 -20 -20
-17 -18 -17 -18 -17 -16 -15 -16 -16 -16 -16 -16 -16 -16 -16 -16 -16 -17 -17 -17 -16 -16 -16 -16 -15 -15 -15 -15 -15 -15 -15 -15 -16 -16 -17 -17 -18 -18 -18 -19 -20 -20 -21 -21
-17 -17 -17 -17 -16 -16 -15 -15 -16 -16 -16 -15 -15 -16 -16 -16 -16 -17 -17 -16 -16 -16 -16 -16 -16 -16 -16 -16 -16 -16 -16 -16 -16 -17 -17 -18 -18 -19 -19 -20 -20 -21 -21 -20
-17 -17 -17 -17 -16 -15 -15 -15 -16 -16 -15 -16 -16 -16 -16 -16 -16 -17 -17 -16 -16 -16 -16 -16 -16 -16 -16 -16 -16 -16 -16 -16 -17 -17 -18 -18 -18 -19 -20 -21 -21 -21 -21 -21
-17 -17 -17 -17 -16 -16 -15 -16 -16 -16 -16 -16 -16 -16 -16 -16 -17 -17 -17 -17 -17 -17 -16 -16 -16 -16 -16 -16 -16 -17 -17 -17 -18 -18 -18 -19 -19 -20 -21 -21 -21 -21 -21 -21
-17 -17 -17 -17 -16 -15 -16 -16 -16 -17 -16 -16 -16 -16 -17 -17 -17 -17 -17 -17 -17 -16 -16 -16 -16 -17 -17 -17 -17 -17 -17 -18 -18 -19 -19 -20 -20 -21 -21 -21 -21 -21 -22 -22
-16 -17 -17 -17 -16 -16 -16 -16 -16 -16 -17 -17 -17 -17 -16 -16 -17 -17 -17 -17 -17 -17 -17 -17 -17 -17 -17 -17 -17 -17 -18 -18 -19 -19 -20 -21 -21 -21 -21 -22 -22 -22 -22 -23
-16 -17 -17 -17 -16 -16 -16 -16 -16 -16 -17 -17 -17 -17 -17 -17 -17 -17 -17 -17 -17 -17 -17 -17 -17 -17 -17 -17 -17 -18 -19 -19 -19 -20 -20 -21 -21 -22 -22 -22 -22 -22 -24 -25
-17 -17 -17 -17 -16 -17 -17 -17 -17 -17 -17 -17 -17 -17 -17 -17 -17 -17 -17 -17 -17 -17 -18 -18 -18 -18 -18 -18 -18 -19 -19 -19 -20 -21 -21 -21 -21 -22 -22 -22 -23 -24 -25 -25
-17 -17 -17 -17 -17 -17 -17 -17 -17 -17 -17 -17 -17 -17 -17 -17 -17 -17 -17 -17 -17 -18 -18 -18 -18 -18 -18 -18 -19 -20 -20 -20 -21 -21 -21 -22 -22 -22 -22 -23 -24 -25 -25 -26

GFSCGP_500_temp_027.txt.gz
Temp
-15 -16 -16 -17 -17 -18 -17 -17 -17 -16 -16 -16 -16 -16 -16 -16 -16 -16 -16 -15 -15 -16 -16 -16 -16 -16 -16 -16 -16 -16 -15 -15 -15 -15 -15 -16 -16 -15 -15 -15 -15 -15 -15 -15
-15 -15 -16 -17 -17 -17 -18 -17 -17 -17 -16 -16 -16 -16 -16 -16 -16 -16 -16 -16 -15 -15 -15 -15 -16 -16 -16 -16 -16 -16 -16 -16 -15 -15 -16 -16 -15 -15 -15 -15 -15 -15 -15 -15
-15 -15 -16 -17 -17 -17 -17 -17 -17 -16 -16 -17 -17 -16 -16 -16 -17 -16 -16 -17 -16 -16 -15 -15 -16 -16 -16 -16 -16 -16 -16 -16 -16 -16 -16 -16 -16 -16 -16 -15 -15 -15 -15 -15
-15 -15 -16 -16 -16 -18 -17 -17 -17 -16 -16 -16 -16 -16 -16 -16 -16 -17 -17 -17 -16 -16 -16 -16 -15 -15 -16 -16 -16 -16 -16 -16 -16 -16 -16 -15 -16 -16 -15 -15 -15 -15 -15 -15
-15 -15 -15 -15 -16 -17 -17 -16 -16 -16 -16 -16 -15 -15 -16 -16 -16 -16 -17 -16 -17 -16 -16 -16 -16 -16 -16 -15 -15 -16 -16 -16 -16 -16 -16 -16 -15 -15 -16 -15 -15 -15 -15 -16
-15 -15 -15 -16 -16 -16 -16 -16 -16 -16 -16 -16 -16 -16 -15 -16 -16 -16 -16 -16 -16 -16 -16 -16 -16 -15 -16 -16 -16 -16 -16 -16 -16 -16 -16 -16 -15 -16 -16 -16 -16 -16 -16 -16
-15 -15 -15 -16 -16 -15 -16 -16 -16 -16 -15 -16 -16 -15 -15 -15 -16 -15 -16 -16 -16 -16 -16 -16 -16 -16 -16 -16 -16 -16 -16 -16 -16 -16 -16 -16 -16 -16 -16 -16 -16 -16 -16 -16
-15 -15 -16 -15 -15 -15 -16 -16 -16 -16 -15 -15 -15 -15 -15 -15 -15 -15 -15 -16 -16 -16 -16 -16 -16 -16 -16 -17 -16 -16 -16 -16 -16 -16 -16 -16 -16 -16 -16 -16 -16 -16 -16 -17
-15 -16 -16 -16 -15 -16 -16 -16 -16 -16 -16 -15 -15 -15 -15 -16 -15 -16 -16 -15 -15 -16 -16 -16 -16 -16 -16 -16 -16 -16 -16 -16 -16 -16 -16 -16 -16 -16 -16 -16 -16 -16 -16 -17
-16 -16 -17 -16 -16 -16 -16 -17 -17 -16 -16 -16 -15 -15 -15 -16 -16 -16 -16 -16 -15 -16 -16 -16 -16 -16 -16 -16 -16 -16 -16 -16 -16 -16 -16 -16 -16 -16 -16 -16 -16 -16 -17 -17
-15 -16 -17 -17 -16 -16 -17 -17 -17 -17 -16 -16 -15 -15 -16 -16 -16 -16 -16 -16 -16 -16 -16 -16 -16 -16 -16 -16 -16 -16 -16 -16 -16 -16 -16 -16 -16 -16 -16 -16 -16 -17 -17 -17
-16 -16 -16 -17 -17 -17 -17 -16 -17 -17 -16 -16 -15 -15 -16 -16 -16 -16 -16 -16 -16 -16 -16 -16 -16 -16 -16 -16 -16 -16 -16 -16 -16 -17 -17 -16 -16 -16 -16 -16 -16 -17 -17 -18
-16 -16 -16 -17 -17 -17 -17 -17 -17 -17 -17 -16 -16 -15 -16 -16 -16 -16 -16 -16 -16 -16 -16 -17 -16 -16 -16 -16 -16 -16 -16 -16 -17 -17 -17 -16 -16 -16 -16 -16 -16 -17 -17 -18
-17 -16 -16 -16 -16 -17 -17 -17 -17 -17 -17 -16 -15 -15 -16 -16 -16 -16 -16 -16 -16 -16 -16 -16 -17 -17 -17 -16 -17 -17 -16 -17 -17 -17 -16 -16 -16 -16 -16 -17 -17 -17 -17 -18
-17 -16 -16 -16 -17 -17 -17 -17 -17 -17 -17 -16 -16 -16 -16 -16 -16 -16 -16 -16 -16 -16 -16 -16 -16 -17 -17 -17 -17 -17 -17 -17 -16 -16 -16 -16 -16 -16 -16 -17 -17 -18 -18 -18
-18 -17 -17 -17 -17 -17 -17 -17 -17 -17 -17 -17 -16 -15 -16 -16 -16 -16 -16 -16 -16 -16 -16 -16 -16 -16 -16 -16 -16 -16 -16 -16 -16 -16 -16 -16 -16 -16 -16 -17 -17 -18 -18 -18
-18 -17 -17 -17 -17 -17 -16 -16 -17 -17 -17 -17 -16 -16 -16 -16 -16 -16 -16 -16 -17 -17 -17 -17 -16 -16 -16 -16 -16 -16 -16 -16 -16 -16 -16 -16 -16 -16 -17 -17 -18 -18 -19 -19
-18 -18 -18 -18 -18 -16 -16 -17 -17 -17 -17 -16 -16 -16 -16 -16 -16 -16 -16 -16 -17 -17 -17 -17 -16 -16 -16 -16 -16 -16 -16 -16 -16 -16 -16 -16 -16 -16 -17 -18 -18 -19 -19 -20
-17 -17 -17 -17 -17 -16 -16 -16 -17 -17 -15 -16 -16 -16 -16 -16 -16 -16 -16 -16 -16 -17 -17 -17 -17 -17 -16 -16 -16 -16 -16 -16 -16 -16 -16 -16 -16 -17 -18 -18 -19 -19 -20 -21
-18 -18 -18 -18 -17 -16 -16 -17 -17 -16 -15 -17 -17 -16 -16 -16 -16 -16 -16 -16 -16 -17 -17 -17 -17 -17 -16 -16 -16 -16 -16 -16 -17 -17 -17 -17 -17 -18 -18 -19 -19 -20 -21 -21
-18 -18 -17 -17 -17 -16 -16 -17 -17 -16 -16 -15 -16 -16 -16 -16 -16 -16 -16 -16 -17 -17 -17 -17 -16 -16 -16 -16 -16 -16 -17 -17 -17 -17 -17 -17 -17 -18 -19 -19 -20 -21 -21 -21
-17 -17 -17 -17 -16 -16 -17 -17 -17 -16 -16 -16 -16 -16 -16 -16 -16 -17 -17 -17 -17 -17 -17 -17 -16 -16 -16 -16 -17 -17 -17 -17 -17 -17 -17 -18 -18 -19 -19 -20 -21 -21 -21 -21
-17 -17 -17 -17 -17 -17 -16 -17 -17 -16 -16 -16 -16 -16 -16 -17 -17 -17 -17 -17 -17 -17 -17 -17 -17 -17 -17 -17 -17 -17 -17 -18 -18 -18 -18 -18 -19 -20 -20 -21 -21 -21 -22 -22
-17 -17 -17 -17 -17 -17 -17 -17 -17 -17 -16 -16 -16 -16 -17 -17 -17 -17 -17 -17 -17 -17 -17 -17 -17 -17 -17 -18 -18 -18 -18 -18 -18 -18 -18 -19 -19 -20 -21 -21 -21 -22 -22 -22
-17 -18 -17 -17 -17 -17 -17 -17 -17 -17 -17 -17 -17 -17 -17 -17 -17 -17 -17 -17 -17 -17 -17 -17 -17 -18 -18 -18 -18 -18 -18 -18 -18 -19 -19 -20 -20 -21 -21 -22 -22 -22 -23 -23
-17 -17 -18 -17 -18 -17 -17 -17 -17 -17 -17 -17 -17 -17 -17 -17 -17 -17 -17 -17 -17 -17 -18 -18 -18 -18 -18 -19 -19 -18 -18 -19 -19 -20 -20 -20 -21 -21 -22 -22 -23 -23 -23 -24